Regional Weather Roundup
Issued by NWS

Home | Current Version | Previous Version | Graphics & Text | Print | Product List | Glossary On
Versions: 1 2 3 4 5 6 7 8 9 10 11 12 13 14 15 16 17 18 19 20 21 22 23 24 25 26 27 28 29 30 31 32 33 34 35 36 37 38 39 40 41 42 43 44 45 46 47 48 49 50
000
ASUS45 KABQ 271001
RWRNM
NEW MEXICO REGIONAL WEATHER ROUNDUP
NATIONAL WEATHER SERVICE ALBUQUERQUE NM
400 AM MDT SAT AUG 27 2016

NOTE: "FAIR" MEANS FEW OR NO CLOUDS BELOW 12,000 FEET AGL WITH NO
       SIGNIFICANT WEATHER OR OBSTRUCTIONS TO VISION.

      THIS PRODUCT IS RELEASED AS TWO VERSIONS.  ONE VERSION NEAR
      THE TOP OF THE HOUR CONTAINING PRELIMINARY DATA FROM ALBUQUERQUE
      AND OTHER STATIONS.  A FINAL VERSION WITH ADDITIONAL DATA IS
      ISSUED ABOUT 10 MINUTES AFTER THE HOUR.

NMZ501-503-504-510>518-271100-
NORTHWEST PLATEAU/NORTHCENTRAL MOUNTAINS

CITY           SKY/WX    TMP DP  RH WIND       PRES   REMARKS
FARMINGTON     FAIR      58  45  62 NE7       30.16S
LOS ALAMOS     FAIR      57  44  63 W3        30.27F
SANTA FE       FAIR      56  50  80 CALM      30.22S
TAOS           FAIR      45  37  76 N6        30.29S
ANGEL FIRE     FAIR      38  37  94 CALM      30.35F

$$
NMZ402-403-502-505>509-271100-
WESTCENTRAL MOUNTAINS/SOUTHWEST MOUNTAINS

CITY           SKY/WX    TMP DP  RH WIND       PRES   REMARKS
GALLUP         CLOUDY    56  44  64 E3        30.22F
GRANTS         MOCLDY    53  47  82 CALM      30.26S
SILVER CITY    CLOUDY    59  55  86 N6        30.18S

$$
NMZ407-409-411-412-271100-
SOUTHERN DESERTS

CITY           SKY/WX    TMP DP  RH WIND       PRES   REMARKS
DEMING         FAIR      66  56  70 E6        30.10F
LAS CRUCES     FAIR      68  56  65 SE6       30.12S
ALAMOGORDO     MOCLDY    66  61  82 NW8       30.11S
T OR C         FAIR      65  54  67 W7        30.13F

$$
NMZ519>523-271100-
CENTRAL VALLEYS/CENTRAL HIGHLANDS

CITY           SKY/WX    TMP DP  RH WIND       PRES   REMARKS
ALBUQUERQUE    MOCLDY    64  49  57 CALM      30.17S
DOUBLE EAGLE   FAIR      53  46  77 CALM      30.20S
MORIARTY ARPT  FAIR      52  49  89 CALM      30.23S
CLINES CORNERS FAIR      56  47  71 SW10      30.26F
BELEN          FAIR      62  47  57 SW3       30.16S
SOCORRO        CLOUDY    66  51  59 S7        30.15S

$$
NMZ524>526-539-540-271100-
SOUTHCENTRAL MOUNTAINS

CITY           SKY/WX    TMP DP  RH WIND       PRES   REMARKS
RUIDOSO        NOT AVBL

$$
NMZ527>531-271100-
NORTHEAST HIGHLANDS/NORTHEAST PLAINS

CITY           SKY/WX    TMP DP  RH WIND       PRES   REMARKS
LAS VEGAS      CLOUDY    54  51  90 S9        30.24F
RATON          FAIR      47  44  90 E5        30.20S
CLAYTON        FAIR      59  57  93 SW10      30.11F

$$
NMZ532>537-271100-
EASTCENTRAL PLAINS

CITY           SKY/WX    TMP DP  RH WIND       PRES   REMARKS
TUCUMCARI      FAIR      67  63  87 S10       30.09S
CANNON AFB     MOCLDY    63  63 100 S9        30.14S
CLOVIS AIRPORT FAIR      63  55  77 S8        30.14F

$$
NMZ028-029-538-271100-
SOUTHEAST PLAINS

CITY           SKY/WX    TMP DP  RH WIND       PRES   REMARKS
ROSWELL        FAIR      66  61  84 S5        30.08S
ARTESIA        FAIR      68  68 100 SW8       30.09R
CARLSBAD       FAIR      65  63  93 S6        30.05F
HOBBS          MOCLDY    64  64 100 E5        30.12S


$$




USA.gov is the U.S. government's official web portal to all federal, state and local government web resources and services.